{"data":{"norad_id":67314,"epoch":"2026-09-19T04:51:50.402880Z","epoch_age_seconds":187491,"freshness":"STALE","line1":"1 67314U 26002K   26262.20266670  .00009806  00000+0  36530-3 0  9990","line2":"2 67314  43.0002 312.4560 0001186 206.1691 153.9101 15.27589542 40668","mean_motion":15.27589542,"eccentricity":0.0001186,"inclination_deg":43.0002,"raan_deg":312.456,"arg_perigee_deg":206.1691,"mean_anomaly_deg":153.9101,"bstar":0.0003653,"rev_number":4066,"period_min":94.266159881841,"perigee_km":482.20679072532,"apogee_km":483.83425729001,"semimajor_km":6861.1575240077,"source":"CELESTRAK","updated_at":"2026-09-20T09:00:43.504367Z"}}